OPS 4682 DEB, 38396

Orbit data source: Space-Track

OPS 4682 DEB, 38396 is space debris in LEO originally from a launch on Sat, 03 Apr 1965 UTC launched from the Air Force Western Test Range (AFWTR). Debris objects in space refer to the collection of defunct objects orbiting the Earth. Examples of debris include non-operational satellites, rocket bodies, and fragments generated from explosions, collisions, or faulty payload assembly.

Loading next visibility...
Identifier
38396, 1965-027CZ
Orbit
LEO
Country
Flag of USUS
Related business
Manufacturer
Unknown
Mission
Spacecraft
Bus & Motor
Unknown
Mass
Unknown
Launch date (UTC)
1965-04-03 (61 years ago)
Launch vehicle
Unknown
Launch site
Air Force Western Test Range (AFWTR)
Object type
Payload
Rocket body
Debris
Shape & HBR
Unknown shape, 0.1 m
Radar Cross Section
Small (<0.1 m²)

Expand to show TLE details & history
Last TLE update: 20 hours ago

TLE from 20 hours ago
0 OPS 4682 DEB
1 38396U 65027CZ  26035.37946310  .00000669  00000-0  22585-2 0  9993
2 38396  90.2510   8.2609 0039165  80.4439 280.1104 12.97844325645977
Epoch: 2026-02-04T09:06Z
TLE epoch observation values (Epoch: 2026-02-04T09:06:25.611Z)
Latitude
-0.00008°
Longitude
97.1073°
Altitude
1,268.279 km
Speed
7.224 km/s
True Right ascension
00h 33m 02s
True Declination
0° 00' 00"
Sunlit
Object was in daylight at epoch
Visualization orbit readout
Latitude
Unknown
Longitude
Unknown
Altitude
Unknown
Speed
Unknown
Apparent Right ascension
Unknown
Apparent Declination
Unknown
Sunlit
N/A
Visualization observer readout
Local Sidereal Time
07:14:06
Azimuth
Unknown
Elevation
Unknown
Doppler factor
Unknown
Orbital elements
Apogee altitude
1,297.619 km
Perigee altitude
1,237.73 km
Semi-major axis
7,645.812 km
Eccentricity
0.00392
Inclination
90.251°
RAAN
8.2609°
Arg. of periapsis
80.4439°
True anomaly
279.6682°
Mean anomaly
280.1104°
Eccentric anomaly
279.88934°
Mean motion
3.24644 °/min
Orbital period
110.89 mins
BSTAR
0.0022585
Loading maneuver chart data...
Computing Atmospheric mass density...
Loading historical data...
Loading historical data...
Loading historical data...
Loading historical data...
Loading historical data...
Loading historical data...
Loading historical data...

Documentation

Showing up to 5 results
|